Voltar ao catálogo

NOAA 16 DEB

AtivoSSO
NORAD 41159·DEBRIS·🇺🇸 United States

Lançado Sep 21, 2000 de Vandenberg Space Force Base

Loading…

Próximas Passagens (próximas 24 horas)

TLE

AtualizadoSource: Space-Track

Época: Sep 13, 2026, 10:22 UTC

1 41159U 00055CS  26256.43237313  .00002055  00000-0  75618-3 0  9999
2 41159  98.6032 332.4685 0017499 276.8849  83.0345 14.33629437559458

Acompanhe NOAA 16 DEB em tempo real com AllMySat

Download on the App Store